Voltar ao catálogo

ATLAS 5 CENTAUR DEB

LostHEO
NORAD 49373·DEBRIS·🇺🇸 United States

Lançado Oct 17, 2018 de Cape Canaveral Space Force Station

Loading…

Próximas Passagens (próximas 24 horas)

TLE

ObsoletoSource: Space-Track

Época: Dec 15, 2022, 21:05 UTC

1 49373U 18079GA  22349.87904317 -.00000069  00000-0  00000+0 0  9995
2 49373  11.2498 140.1635 4905924 134.1024 278.6072  1.94803257  9348

Acompanhe ATLAS 5 CENTAUR DEB em tempo real com AllMySat

Download on the App Store